KQA515 DGAA-HKJK

Flight info

Callsign KQA515
Flight time N/A
Altitude 41000
Route EREKA1D EREKA DCT ENEVO UP685 DLA UR984 NLY UL434 NN UL433 NAKAT NAKAT4A
Aircraft B788/H-SDE1E2E3FGHIJ2J3J4J5M1RWXYZ/LB1D1

Departure

Time 2026-04-27 08:20
Airport Kotoka International Airport (DGAA)

Arrival

Time N/A
Airport Jomo Kenyatta International Airport (HKJK)
Time Latitude Longitude Altitude Speed Heading
2026-04-27 08:08 5.60098 -0.17211 218 ft 0 kts 291°
2026-04-27 08:11 5.60097 -0.17206 218 ft 2 kts 293°
2026-04-27 08:11 5.60090 -0.17192 218 ft 2 kts 294°
2026-04-27 08:12 5.60084 -0.17178 218 ft 2 kts 292°
2026-04-27 08:12 5.60079 -0.17164 218 ft 2 kts 292°
2026-04-27 08:12 5.60072 -0.17150 218 ft 2 kts 311°
2026-04-27 08:12 5.60060 -0.17140 218 ft 2 kts 332°
2026-04-27 08:13 5.60046 -0.17134 218 ft 2 kts 352°
2026-04-27 08:13 5.60031 -0.17134 218 ft 2 kts 12°
2026-04-27 08:13 5.60021 -0.17136 218 ft 1 kts 24°
2026-04-27 08:13 5.60019 -0.17137 218 ft 0 kts 23°
2026-04-27 08:15 5.60023 -0.17136 218 ft 2 kts 23°
2026-04-27 08:15 5.60059 -0.17120 218 ft 8 kts 23°
2026-04-27 08:15 5.60131 -0.17089 218 ft 13 kts 23°
2026-04-27 08:16 5.60239 -0.17043 218 ft 19 kts 20°
2026-04-27 08:16 5.60379 -0.16990 218 ft 22 kts 22°
2026-04-27 08:16 5.60537 -0.16924 218 ft 26 kts 22°
2026-04-27 08:16 5.60684 -0.16864 218 ft 22 kts 22°
2026-04-27 08:17 5.60846 -0.16798 218 ft 27 kts 22°
2026-04-27 08:17 5.61035 -0.16720 218 ft 30 kts 22°
2026-04-27 08:17 5.61166 -0.16666 218 ft 13 kts 22°
2026-04-27 08:17 5.61274 -0.16622 218 ft 17 kts 22°
2026-04-27 08:18 5.61389 -0.16575 218 ft 18 kts 22°
2026-04-27 08:18 5.61505 -0.16527 218 ft 10 kts 22°
2026-04-27 08:18 5.61588 -0.16492 218 ft 14 kts 29°
2026-04-27 08:18 5.61621 -0.16394 218 ft 17 kts 116°
2026-04-27 08:19 5.61513 -0.16322 218 ft 16 kts 168°
2026-04-27 08:19 5.61417 -0.16350 218 ft 5 kts 206°
2026-04-27 08:19 5.61389 -0.16363 218 ft 15 kts 204°
2026-04-27 08:19 5.61015 -0.16517 218 ft 102 kts 202°
2026-04-27 08:20 5.60079 -0.16901 220 ft 181 kts 202°
2026-04-27 08:20 5.58761 -0.17439 646 ft 220 kts 202°
2026-04-27 08:20 5.57198 -0.18071 1181 ft 257 kts 202°
2026-04-27 08:20 5.55394 -0.18570 1972 ft 280 kts 175°
2026-04-27 08:21 5.54031 -0.17246 2739 ft 291 kts 112°
2026-04-27 08:21 5.53728 -0.15387 3368 ft 250 kts 92°
2026-04-27 08:21 5.53725 -0.13715 4023 ft 233 kts 88°
2026-04-27 08:21 5.53777 -0.12056 4716 ft 239 kts 88°
2026-04-27 08:22 5.53834 -0.10344 5409 ft 247 kts 89°
2026-04-27 08:22 5.53956 -0.08559 6113 ft 266 kts 81°
2026-04-27 08:22 5.54277 -0.06685 6798 ft 278 kts 78°
2026-04-27 08:22 5.54757 -0.04775 7431 ft 281 kts 72°
2026-04-27 08:23 5.55468 -0.02918 8066 ft 283 kts 66°
2026-04-27 08:23 5.56334 -0.01115 8701 ft 285 kts 63°
2026-04-27 08:23 5.57259 0.00675 9334 ft 288 kts 62°
2026-04-27 08:23 5.58146 0.02493 9960 ft 290 kts 71°
2026-04-27 08:24 5.58344 0.04486 10606 ft 293 kts 100°
2026-04-27 08:24 5.57690 0.06473 11290 ft 305 kts 113°
2026-04-27 08:24 5.56851 0.08511 11947 ft 322 kts 110°
2026-04-27 08:24 5.56154 0.10756 12404 ft 346 kts 105°
2026-04-27 08:25 5.55565 0.13196 12733 ft 372 kts 103°
2026-04-27 08:25 5.54961 0.15838 13229 ft 384 kts 103°
2026-04-27 08:25 5.54328 0.18491 13816 ft 389 kts 104°
2026-04-27 08:25 5.53678 0.21141 14460 ft 392 kts 104°
2026-04-27 08:26 5.53016 0.23840 15165 ft 395 kts 104°
2026-04-27 08:26 5.52361 0.26535 15919 ft 399 kts 103°
2026-04-27 08:26 5.51696 0.29285 16744 ft 404 kts 103°
2026-04-27 08:26 5.51021 0.32065 17626 ft 407 kts 103°
2026-04-27 08:27 5.50338 0.34878 18388 ft 415 kts 103°
2026-04-27 08:27 5.49642 0.37743 18792 ft 432 kts 103°
2026-04-27 08:27 5.48904 0.40778 19125 ft 451 kts 103°
2026-04-27 08:27 5.48140 0.43922 19632 ft 464 kts 103°
2026-04-27 08:28 5.47362 0.47121 20399 ft 470 kts 103°
2026-04-27 08:28 5.46585 0.50316 21367 ft 472 kts 103°
2026-04-27 08:28 5.45799 0.53547 22423 ft 471 kts 103°
2026-04-27 08:28 5.45014 0.56773 23409 ft 470 kts 103°
2026-04-27 08:29 5.44240 0.59954 24228 ft 473 kts 103°
2026-04-27 08:29 5.43446 0.63217 24906 ft 478 kts 103°
2026-04-27 08:29 5.42628 0.66578 25493 ft 485 kts 104°
2026-04-27 08:29 5.41810 0.69933 26050 ft 493 kts 104°
2026-04-27 08:30 5.40986 0.73318 26642 ft 499 kts 104°
2026-04-27 08:30 5.40149 0.76750 27291 ft 503 kts 104°
2026-04-27 08:30 5.39315 0.80175 27992 ft 502 kts 104°
2026-04-27 08:30 5.38485 0.83579 28937 ft 494 kts 104°
2026-04-27 08:31 5.37669 0.86923 30022 ft 485 kts 104°
2026-04-27 08:31 5.36873 0.90187 31084 ft 477 kts 104°
2026-04-27 08:31 5.36079 0.93443 32023 ft 470 kts 104°
2026-04-27 08:31 5.35307 0.96604 32760 ft 467 kts 104°
2026-04-27 08:32 5.34529 0.99795 33336 ft 467 kts 104°
2026-04-27 08:32 5.33745 1.03004 33797 ft 470 kts 104°
2026-04-27 08:32 5.32958 1.06228 34209 ft 473 kts 104°
2026-04-27 08:32 5.32171 1.09451 34622 ft 475 kts 104°
2026-04-27 08:33 5.31380 1.12688 35064 ft 476 kts 104°
2026-04-27 08:33 5.30582 1.15950 35539 ft 476 kts 104°
2026-04-27 08:33 5.29782 1.19226 36035 ft 475 kts 104°
2026-04-27 08:33 5.28995 1.22446 36522 ft 474 kts 104°
2026-04-27 08:34 5.28199 1.25697 36932 ft 474 kts 104°
2026-04-27 08:34 5.27406 1.28939 36995 ft 479 kts 104°
2026-04-27 08:34 5.26338 1.33307 37005 ft 479 kts 104°
2026-04-27 08:35 5.24208 1.42006 37003 ft 475 kts 104°
2026-04-27 08:35 5.22616 1.48507 37004 ft 475 kts 104°
2026-04-27 08:36 5.21023 1.55016 37004 ft 476 kts 104°
2026-04-27 08:36 5.19402 1.61483 37004 ft 476 kts 104°
2026-04-27 08:37 5.17732 1.68009 37004 ft 476 kts 104°
2026-04-27 08:37 5.16071 1.74488 37004 ft 476 kts 104°
2026-04-27 08:38 5.14414 1.80953 37004 ft 476 kts 104°
2026-04-27 08:38 5.12749 1.87448 37004 ft 476 kts 104°
2026-04-27 08:39 5.11080 1.93953 37004 ft 476 kts 104°
2026-04-27 08:39 5.09425 2.00401 37004 ft 476 kts 104°
2026-04-27 08:40 5.07753 2.06911 37004 ft 476 kts 104°
2026-04-27 08:40 5.06093 2.13373 37004 ft 476 kts 104°
2026-04-27 08:41 5.04418 2.19892 37004 ft 476 kts 104°
2026-04-27 08:41 5.02754 2.26380 37004 ft 476 kts 104°
2026-04-27 08:42 5.01098 2.32836 37004 ft 476 kts 104°
2026-04-27 08:42 4.99434 2.39318 37004 ft 476 kts 104°
2026-04-27 08:43 4.97763 2.45825 37004 ft 476 kts 104°
2026-04-27 08:43 4.96098 2.52308 37004 ft 476 kts 104°
2026-04-27 08:44 4.94429 2.58801 37004 ft 476 kts 104°
2026-04-27 08:44 4.92772 2.65245 37004 ft 476 kts 104°
2026-04-27 08:45 4.91106 2.71720 37004 ft 476 kts 104°
2026-04-27 08:45 4.89435 2.78212 37004 ft 476 kts 104°
2026-04-27 08:46 4.87767 2.84694 37004 ft 476 kts 104°
2026-04-27 08:46 4.86092 2.91203 37004 ft 476 kts 104°
2026-04-27 08:47 4.84426 2.97673 37004 ft 476 kts 104°
2026-04-27 08:47 4.82757 3.04149 37004 ft 476 kts 104°
2026-04-27 08:48 4.81086 3.10634 37004 ft 476 kts 104°
2026-04-27 08:48 4.79418 3.17102 37004 ft 476 kts 104°
2026-04-27 08:49 4.77752 3.23562 37004 ft 476 kts 104°
2026-04-27 08:49 4.76080 3.30038 37004 ft 476 kts 104°
2026-04-27 08:50 4.74398 3.36554 37004 ft 476 kts 104°
2026-04-27 08:50 4.72726 3.43029 37004 ft 476 kts 104°
2026-04-27 08:51 4.71061 3.49473 37004 ft 476 kts 104°
2026-04-27 08:51 4.69388 3.55943 37004 ft 476 kts 104°
2026-04-27 08:52 4.67715 3.62412 37004 ft 476 kts 104°
2026-04-27 08:52 4.66038 3.68897 37004 ft 476 kts 104°
2026-04-27 08:53 4.64353 3.75406 37004 ft 476 kts 104°
2026-04-27 08:53 4.62684 3.81855 37004 ft 476 kts 104°
2026-04-27 08:54 4.61005 3.88335 37004 ft 476 kts 104°
2026-04-27 08:54 4.59329 3.94803 37004 ft 476 kts 104°
2026-04-27 08:55 4.57648 4.01288 37004 ft 476 kts 104°
2026-04-27 08:55 4.55972 4.07754 37004 ft 476 kts 104°
2026-04-27 08:56 4.54298 4.14206 37004 ft 476 kts 104°
2026-04-27 08:56 4.52608 4.20719 37004 ft 476 kts 104°
2026-04-27 08:57 4.50089 4.30420 37004 ft 476 kts 104°
2026-04-27 08:58 4.48409 4.36887 37004 ft 476 kts 104°
2026-04-27 08:58 4.46723 4.43374 37004 ft 476 kts 104°
2026-04-27 08:59 4.45076 4.49842 37003 ft 476 kts 102°
2026-04-27 08:59 4.43893 4.56417 37005 ft 476 kts 98°
2026-04-27 09:00 4.43048 4.63073 37005 ft 476 kts 96°
2026-04-27 09:00 4.42388 4.69712 37004 ft 476 kts 95°
2026-04-27 09:01 4.41768 4.76395 37004 ft 476 kts 95°
2026-04-27 09:01 4.41160 4.83030 37004 ft 476 kts 95°
2026-04-27 09:02 4.40549 4.89716 37005 ft 476 kts 95°
2026-04-27 09:02 4.39938 4.96388 37005 ft 476 kts 95°
2026-04-27 09:03 4.39327 5.03062 37005 ft 476 kts 95°
2026-04-27 09:03 4.38719 5.09703 37005 ft 476 kts 95°
2026-04-27 09:04 4.38108 5.16354 37005 ft 476 kts 95°
2026-04-27 09:04 4.37599 5.21901 37005 ft 476 kts 95°
2026-04-27 09:05 4.36986 5.28576 37005 ft 476 kts 95°
2026-04-27 09:05 4.36272 5.36335 37005 ft 476 kts 95°
2026-04-27 09:06 4.35660 5.42982 37005 ft 476 kts 95°
2026-04-27 09:06 4.35046 5.49642 37005 ft 476 kts 95°
2026-04-27 09:07 4.34429 5.56330 37005 ft 476 kts 95°
2026-04-27 09:07 4.33814 5.62986 37005 ft 476 kts 95°
2026-04-27 09:08 4.33191 5.69633 37005 ft 476 kts 95°
2026-04-27 09:08 4.32562 5.76283 37005 ft 476 kts 95°
2026-04-27 09:09 4.31931 5.82945 37005 ft 476 kts 95°
2026-04-27 09:09 4.31298 5.89630 37005 ft 476 kts 95°
2026-04-27 09:10 4.30668 5.96279 37005 ft 476 kts 95°
2026-04-27 09:10 4.30036 6.02931 37005 ft 476 kts 95°
2026-04-27 09:11 4.29407 6.09578 37005 ft 476 kts 95°
2026-04-27 09:11 4.28775 6.16271 37005 ft 476 kts 95°
2026-04-27 09:12 4.28146 6.22929 37005 ft 476 kts 95°
2026-04-27 09:12 4.27519 6.29562 37005 ft 476 kts 95°
2026-04-27 09:13 4.26888 6.36228 37005 ft 476 kts 95°
2026-04-27 09:13 4.26255 6.42898 37005 ft 476 kts 95°
2026-04-27 09:14 4.25618 6.49525 37005 ft 476 kts 95°
2026-04-27 09:14 4.24973 6.56212 37005 ft 476 kts 95°
2026-04-27 09:15 4.24331 6.62870 37005 ft 476 kts 95°
2026-04-27 09:15 4.23686 6.69536 37005 ft 476 kts 95°
2026-04-27 09:16 4.23041 6.76166 37005 ft 476 kts 95°
2026-04-27 09:16 4.22391 6.82845 37005 ft 476 kts 95°
2026-04-27 09:17 4.21745 6.89483 37005 ft 476 kts 95°
2026-04-27 09:17 4.21098 6.96127 37005 ft 476 kts 95°
2026-04-27 09:18 4.20444 7.02831 37005 ft 476 kts 95°
2026-04-27 09:18 4.19797 7.09448 37005 ft 476 kts 95°
2026-04-27 09:19 4.19143 7.16147 37005 ft 476 kts 95°
2026-04-27 09:19 4.18493 7.22794 37005 ft 476 kts 95°
2026-04-27 09:20 4.17845 7.29414 37005 ft 476 kts 95°
2026-04-27 09:20 4.17189 7.36105 37005 ft 476 kts 95°
2026-04-27 09:21 4.16536 7.42761 37005 ft 476 kts 95°
2026-04-27 09:21 4.15883 7.49413 37005 ft 476 kts 95°
2026-04-27 09:22 4.15233 7.56034 37005 ft 476 kts 95°
2026-04-27 09:22 4.14577 7.62702 37005 ft 476 kts 95°
2026-04-27 09:23 4.13920 7.69377 37005 ft 476 kts 96°
2026-04-27 09:23 4.13263 7.76045 37005 ft 476 kts 96°
2026-04-27 09:24 4.12604 7.82696 37005 ft 476 kts 96°
2026-04-27 09:24 4.12032 7.89347 37005 ft 476 kts 94°
2026-04-27 09:25 4.11574 7.96015 37005 ft 476 kts 94°
2026-04-27 09:25 4.11126 8.02678 37005 ft 476 kts 94°
2026-04-27 09:26 4.10676 8.09340 37005 ft 476 kts 94°
2026-04-27 09:26 4.10225 8.16028 37005 ft 476 kts 94°
2026-04-27 09:27 4.09775 8.22700 37005 ft 476 kts 94°
2026-04-27 09:27 4.09324 8.29375 37005 ft 476 kts 94°
2026-04-27 09:28 4.08873 8.36051 37005 ft 476 kts 94°
2026-04-27 09:28 4.08423 8.42691 37005 ft 476 kts 94°
2026-04-27 09:29 4.07968 8.49393 37005 ft 476 kts 94°
2026-04-27 09:29 4.07517 8.56047 37005 ft 476 kts 94°
2026-04-27 09:30 4.07064 8.62708 37005 ft 476 kts 94°
2026-04-27 09:30 4.06610 8.69371 37005 ft 476 kts 94°
2026-04-27 09:31 4.06153 8.76077 37005 ft 476 kts 94°
2026-04-27 09:31 4.05698 8.82737 37005 ft 476 kts 94°
2026-04-27 09:32 4.05242 8.89417 37005 ft 476 kts 94°
2026-04-27 09:32 4.04786 8.96085 37005 ft 476 kts 94°
2026-04-27 09:33 4.04328 9.02776 37005 ft 476 kts 94°
2026-04-27 09:33 4.03872 9.09428 37005 ft 476 kts 94°
2026-04-27 09:34 4.03415 9.16077 37005 ft 476 kts 94°
2026-04-27 09:34 4.02955 9.22770 37005 ft 476 kts 94°
2026-04-27 09:35 4.02497 9.29428 37005 ft 476 kts 94°
2026-04-27 09:35 4.02038 9.36099 37005 ft 476 kts 94°
2026-04-27 09:36 4.01579 9.42756 37005 ft 476 kts 94°
2026-04-27 09:36 4.01115 9.49472 37005 ft 476 kts 94°
2026-04-27 09:37 4.00656 9.56110 37005 ft 476 kts 94°
2026-04-27 09:37 4.00193 9.62798 37005 ft 476 kts 94°
2026-04-27 09:38 3.99721 9.69474 37005 ft 476 kts 95°
2026-04-27 09:38 3.99009 9.76094 37005 ft 476 kts 97°
2026-04-27 09:39 3.98133 9.82743 37005 ft 476 kts 98°
2026-04-27 09:39 3.97181 9.89359 37005 ft 476 kts 98°
2026-04-27 09:40 3.96209 9.95983 37005 ft 476 kts 98°
2026-04-27 09:40 3.95239 10.02578 37005 ft 476 kts 98°
2026-04-27 09:41 3.94265 10.09188 37005 ft 476 kts 98°
2026-04-27 09:41 3.93289 10.15816 37005 ft 476 kts 98°
2026-04-27 09:42 3.92309 10.22463 37005 ft 476 kts 98°
2026-04-27 09:42 3.91335 10.29076 37005 ft 476 kts 98°
2026-04-27 09:43 3.90365 10.35658 37005 ft 476 kts 98°
2026-04-27 09:43 3.89389 10.42275 37005 ft 476 kts 98°
2026-04-27 09:44 3.88409 10.48907 37005 ft 476 kts 98°
2026-04-27 09:44 3.87435 10.55503 37005 ft 476 kts 98°
2026-04-27 09:45 3.86458 10.62116 37005 ft 476 kts 98°
2026-04-27 09:45 3.85477 10.68749 37005 ft 476 kts 98°
2026-04-27 09:46 3.84500 10.75354 37005 ft 476 kts 98°
2026-04-27 09:46 3.83523 10.81959 37005 ft 476 kts 98°
2026-04-27 09:47 3.82541 10.88589 37005 ft 476 kts 98°
2026-04-27 09:47 3.81562 10.95197 37005 ft 476 kts 98°
2026-04-27 09:48 3.80580 11.01822 37005 ft 476 kts 98°
2026-04-27 09:48 3.79601 11.08423 37005 ft 476 kts 98°
2026-04-27 09:49 3.78622 11.15019 37005 ft 476 kts 98°
2026-04-27 09:49 3.77635 11.21667 37005 ft 476 kts 98°
2026-04-27 09:50 3.76657 11.28247 37005 ft 476 kts 98°
2026-04-27 09:50 3.75674 11.34862 37005 ft 476 kts 98°
2026-04-27 09:51 3.74692 11.41461 37005 ft 476 kts 98°
2026-04-27 09:51 3.73707 11.48077 37005 ft 476 kts 98°
2026-04-27 09:52 3.72675 11.54693 37005 ft 476 kts 100°
2026-04-27 09:52 3.71345 11.61229 37005 ft 476 kts 102°
2026-04-27 09:53 3.69924 11.67773 37005 ft 476 kts 102°
2026-04-27 09:53 3.68498 11.74310 37005 ft 476 kts 102°
2026-04-27 09:54 3.67073 11.80824 37005 ft 476 kts 102°
2026-04-27 09:54 3.65646 11.87342 37005 ft 476 kts 102°
2026-04-27 09:55 3.64216 11.93871 37005 ft 476 kts 102°
2026-04-27 09:55 3.62069 12.03667 37005 ft 476 kts 102°
2026-04-27 09:56 3.60638 12.10194 37005 ft 476 kts 102°
2026-04-27 09:56 3.59205 12.16730 37005 ft 476 kts 102°
2026-04-27 09:57 3.57775 12.23246 37005 ft 476 kts 102°
2026-04-27 09:57 3.56345 12.29762 37005 ft 476 kts 102°
2026-04-27 09:58 3.54905 12.36322 37005 ft 476 kts 102°
2026-04-27 09:58 3.53471 12.42853 37005 ft 476 kts 102°
2026-04-27 09:59 3.52044 12.49347 37005 ft 476 kts 102°
2026-04-27 09:59 3.50609 12.55879 37005 ft 476 kts 102°
2026-04-27 10:00 3.49172 12.62416 37005 ft 476 kts 102°
2026-04-27 10:00 3.47740 12.68925 37005 ft 476 kts 102°
2026-04-27 10:01 3.46305 12.75446 37005 ft 476 kts 102°
2026-04-27 10:01 3.44867 12.81980 37005 ft 476 kts 102°
2026-04-27 10:02 3.43429 12.88513 37005 ft 476 kts 102°
2026-04-27 10:02 3.41994 12.95026 37005 ft 476 kts 102°
2026-04-27 10:03 3.40552 13.01571 37005 ft 476 kts 102°
2026-04-27 10:03 3.39115 13.08088 37005 ft 476 kts 102°
2026-04-27 10:04 3.37676 13.14615 37005 ft 476 kts 102°
2026-04-27 10:04 3.36240 13.21128 37005 ft 476 kts 102°
2026-04-27 10:05 3.34793 13.27685 37005 ft 476 kts 102°
2026-04-27 10:05 3.33361 13.34173 37005 ft 476 kts 102°
2026-04-27 10:06 3.31923 13.40687 37005 ft 476 kts 102°
2026-04-27 10:06 3.30475 13.47244 37005 ft 476 kts 102°
2026-04-27 10:07 3.29034 13.53767 37005 ft 476 kts 102°
2026-04-27 10:07 3.27594 13.60284 37005 ft 476 kts 102°
2026-04-27 10:08 3.26149 13.66820 37005 ft 476 kts 102°
2026-04-27 10:08 3.24713 13.73312 37005 ft 476 kts 102°
2026-04-27 10:09 3.23263 13.79869 37005 ft 476 kts 102°
2026-04-27 10:09 3.21825 13.86365 37005 ft 476 kts 102°
2026-04-27 10:10 3.20376 13.92913 37005 ft 476 kts 102°
2026-04-27 10:10 3.18932 13.99430 37005 ft 476 kts 102°
2026-04-27 10:11 3.17489 14.05949 37005 ft 476 kts 102°
2026-04-27 10:11 3.16045 14.12462 37005 ft 476 kts 102°
2026-04-27 10:12 3.14600 14.18986 37005 ft 476 kts 102°
2026-04-27 10:12 3.13152 14.25518 37005 ft 476 kts 102°
2026-04-27 10:13 3.11709 14.32022 37005 ft 476 kts 102°
2026-04-27 10:13 3.10269 14.38517 37005 ft 476 kts 102°
2026-04-27 10:14 3.08815 14.45068 37005 ft 476 kts 102°
2026-04-27 10:14 3.07370 14.51575 37005 ft 476 kts 102°
2026-04-27 10:15 3.05922 14.58096 37005 ft 476 kts 102°
2026-04-27 10:15 3.04475 14.64614 37005 ft 476 kts 102°
2026-04-27 10:16 3.03022 14.71150 37005 ft 476 kts 102°
2026-04-27 10:16 3.01574 14.77666 37005 ft 476 kts 102°
2026-04-27 10:17 3.00127 14.84172 37005 ft 476 kts 102°
2026-04-27 10:17 2.98675 14.90701 37005 ft 476 kts 102°
2026-04-27 10:18 2.97227 14.97210 37005 ft 476 kts 102°
2026-04-27 10:18 2.95774 15.03742 37005 ft 476 kts 102°
2026-04-27 10:19 2.94323 15.10264 37005 ft 476 kts 102°
2026-04-27 10:19 2.92964 15.16366 37005 ft 476 kts 102°
2026-04-27 10:20 2.91493 15.22971 37005 ft 476 kts 102°
2026-04-27 10:20 2.90018 15.29594 37005 ft 476 kts 102°
2026-04-27 10:21 2.88557 15.36152 37005 ft 476 kts 102°
2026-04-27 10:21 2.87094 15.42712 37005 ft 476 kts 102°
2026-04-27 10:22 2.85626 15.49295 37006 ft 476 kts 102°
2026-04-27 10:22 2.84156 15.55890 37006 ft 476 kts 102°
2026-04-27 10:23 2.82690 15.62461 37006 ft 476 kts 102°
2026-04-27 10:23 2.81227 15.69017 37006 ft 476 kts 102°
2026-04-27 10:24 2.79754 15.75615 37006 ft 476 kts 102°
2026-04-27 10:24 2.78290 15.82177 37006 ft 476 kts 102°
2026-04-27 10:25 2.76826 15.88730 37006 ft 476 kts 102°
2026-04-27 10:25 2.75372 15.95243 37006 ft 476 kts 102°
2026-04-27 10:26 2.73907 16.01799 37006 ft 476 kts 102°
2026-04-27 10:26 2.72434 16.08388 37006 ft 476 kts 102°
2026-04-27 10:27 2.70980 16.14896 37006 ft 476 kts 102°
2026-04-27 10:27 2.69519 16.21428 37006 ft 476 kts 102°
2026-04-27 10:28 2.68068 16.27915 37006 ft 476 kts 102°
2026-04-27 10:28 2.66600 16.34478 37006 ft 476 kts 102°
2026-04-27 10:29 2.65143 16.40988 37006 ft 476 kts 102°
2026-04-27 10:29 2.63685 16.47502 37006 ft 476 kts 102°
2026-04-27 10:30 2.62228 16.54009 37006 ft 476 kts 102°
2026-04-27 10:30 2.60760 16.60564 37006 ft 476 kts 102°
2026-04-27 10:31 2.59288 16.67138 37006 ft 476 kts 102°
2026-04-27 10:31 2.57825 16.73668 37006 ft 476 kts 102°
2026-04-27 10:32 2.56307 16.80438 37006 ft 476 kts 102°
2026-04-27 10:32 2.54836 16.87003 37005 ft 476 kts 102°
2026-04-27 10:33 2.53418 16.93324 37006 ft 476 kts 102°
2026-04-27 10:33 2.51924 16.99986 37006 ft 476 kts 102°
2026-04-27 10:34 2.50416 17.06709 37006 ft 476 kts 102°
2026-04-27 10:34 2.49049 17.12803 37006 ft 476 kts 102°
2026-04-27 10:35 2.47526 17.19587 37006 ft 476 kts 102°
2026-04-27 10:35 2.46000 17.26383 37006 ft 476 kts 102°
2026-04-27 10:36 2.44506 17.33038 37006 ft 476 kts 102°
2026-04-27 10:36 2.43006 17.39713 37006 ft 476 kts 102°
2026-04-27 10:37 2.41540 17.46242 37006 ft 476 kts 102°
2026-04-27 10:37 2.40034 17.52942 37006 ft 476 kts 102°
2026-04-27 10:38 2.38568 17.59465 37006 ft 476 kts 102°
2026-04-27 10:38 2.37060 17.66169 37006 ft 476 kts 103°
2026-04-27 10:39 2.35594 17.72694 37006 ft 476 kts 102°
2026-04-27 10:39 2.34101 17.79507 37006 ft 476 kts 102°
2026-04-27 10:40 2.32630 17.86331 37006 ft 476 kts 102°
2026-04-27 10:40 2.31162 17.93143 37006 ft 476 kts 102°
2026-04-27 10:41 2.29720 17.99828 37006 ft 476 kts 102°
2026-04-27 10:41 2.28299 18.06424 37006 ft 476 kts 102°
2026-04-27 10:42 2.26810 18.13026 37006 ft 476 kts 103°
2026-04-27 10:42 2.25190 18.19605 37006 ft 476 kts 104°
2026-04-27 10:43 2.23520 18.26321 37006 ft 476 kts 104°
2026-04-27 10:43 2.22025 18.32330 37006 ft 476 kts 104°
2026-04-27 10:44 2.20395 18.38881 37006 ft 476 kts 104°
2026-04-27 10:44 2.18775 18.45380 37006 ft 476 kts 104°
2026-04-27 10:45 2.17154 18.51952 37006 ft 476 kts 104°
2026-04-27 10:45 2.15540 18.58571 37006 ft 476 kts 103°
2026-04-27 10:46 2.13955 18.65071 37006 ft 476 kts 104°
2026-04-27 10:46 2.12319 18.71777 37006 ft 476 kts 104°
2026-04-27 10:47 2.10673 18.78518 37006 ft 476 kts 104°
2026-04-27 10:47 2.09025 18.85270 37006 ft 476 kts 104°
2026-04-27 10:48 2.07363 18.92081 37006 ft 476 kts 104°
2026-04-27 10:48 2.05707 18.98862 37006 ft 476 kts 104°
2026-04-27 10:49 2.04036 19.05708 37006 ft 476 kts 104°
2026-04-27 10:49 2.02378 19.12495 37006 ft 476 kts 104°
2026-04-27 10:50 2.00754 19.19135 37006 ft 476 kts 104°
2026-04-27 10:50 1.99084 19.25909 37006 ft 476 kts 104°
2026-04-27 10:51 1.97420 19.32641 37006 ft 476 kts 104°
2026-04-27 10:51 1.95755 19.39377 37006 ft 476 kts 104°
2026-04-27 10:52 1.94067 19.46205 37006 ft 476 kts 104°
2026-04-27 10:52 1.92384 19.53066 37006 ft 476 kts 104°
2026-04-27 10:53 1.89891 19.63264 37006 ft 476 kts 104°
2026-04-27 10:54 1.88234 19.70035 37006 ft 476 kts 104°
2026-04-27 10:54 1.86592 19.76748 37006 ft 476 kts 104°
2026-04-27 10:55 1.84936 19.83518 37006 ft 476 kts 104°
2026-04-27 10:55 1.83340 19.90044 37006 ft 476 kts 104°
2026-04-27 10:56 1.81732 19.96568 37006 ft 476 kts 104°
2026-04-27 10:56 1.80114 20.03051 37006 ft 476 kts 104°
2026-04-27 10:57 1.78478 20.09595 37006 ft 476 kts 104°
2026-04-27 10:57 1.76810 20.16271 37006 ft 476 kts 104°
2026-04-27 10:58 1.75101 20.23107 37006 ft 476 kts 104°
2026-04-27 10:58 1.73417 20.29843 37006 ft 476 kts 104°
2026-04-27 10:59 1.71700 20.36709 37006 ft 476 kts 104°
2026-04-27 10:59 1.69992 20.43538 37006 ft 476 kts 104°
2026-04-27 11:00 1.67450 20.53698 37006 ft 476 kts 104°
2026-04-27 11:00 1.65768 20.60472 37006 ft 476 kts 104°
2026-04-27 11:01 1.64116 20.67236 37006 ft 476 kts 104°
2026-04-27 11:01 1.62490 20.73905 37006 ft 476 kts 104°
2026-04-27 11:02 1.60872 20.80534 37006 ft 476 kts 104°
2026-04-27 11:02 1.59226 20.87279 37006 ft 476 kts 104°
2026-04-27 11:03 1.57572 20.94055 37006 ft 476 kts 104°
2026-04-27 11:03 1.55932 21.00775 37006 ft 476 kts 104°
2026-04-27 11:04 1.54284 21.07524 37006 ft 476 kts 104°
2026-04-27 11:04 1.52644 21.14237 37006 ft 476 kts 104°
2026-04-27 11:05 1.50973 21.21082 37006 ft 476 kts 104°
2026-04-27 11:05 1.49317 21.27860 37006 ft 476 kts 104°
2026-04-27 11:06 1.47682 21.34554 37006 ft 476 kts 104°
2026-04-27 11:06 1.46035 21.41294 37006 ft 476 kts 104°
2026-04-27 11:07 1.44400 21.47985 37006 ft 476 kts 104°
2026-04-27 11:07 1.42788 21.54552 37006 ft 476 kts 104°
2026-04-27 11:08 1.41153 21.61172 37006 ft 476 kts 104°
2026-04-27 11:08 1.39499 21.67866 37006 ft 476 kts 104°
2026-04-27 11:09 1.37909 21.74305 37006 ft 476 kts 104°
2026-04-27 11:09 1.36214 21.81163 37006 ft 476 kts 104°
2026-04-27 11:10 1.34568 21.87826 37006 ft 476 kts 104°
2026-04-27 11:10 1.33342 21.92779 37198 ft 477 kts 103°
2026-04-27 11:11 1.31657 21.99583 37232 ft 483 kts 103°
2026-04-27 11:11 1.29998 22.06316 37235 ft 481 kts 103°
2026-04-27 11:12 1.28281 22.13266 37258 ft 480 kts 103°
2026-04-27 11:12 1.26592 22.20097 37270 ft 481 kts 103°
2026-04-27 11:13 1.24902 22.26932 37270 ft 481 kts 103°
2026-04-27 11:13 1.23233 22.33682 37270 ft 480 kts 103°
2026-04-27 11:14 1.21567 22.40419 37270 ft 480 kts 103°
2026-04-27 11:14 1.19885 22.47220 37270 ft 481 kts 103°
2026-04-27 11:15 1.18203 22.54022 37270 ft 481 kts 103°
2026-04-27 11:15 1.16517 22.60838 37260 ft 481 kts 103°
2026-04-27 11:16 1.14849 22.67582 37248 ft 480 kts 103°
2026-04-27 11:16 1.13183 22.74313 37251 ft 480 kts 103°
2026-04-27 11:17 1.11511 22.81070 37268 ft 481 kts 103°
2026-04-27 11:17 1.09818 22.87914 37270 ft 484 kts 103°
2026-04-27 11:18 1.08040 22.95105 37270 ft 486 kts 104°
2026-04-27 11:18 1.06310 23.02096 37270 ft 487 kts 104°
2026-04-27 11:19 1.04635 23.08852 37251 ft 488 kts 104°
2026-04-27 11:19 1.02959 23.15613 37221 ft 487 kts 103°
2026-04-27 11:20 1.01282 23.22385 37206 ft 487 kts 103°
2026-04-27 11:20 0.99588 23.29227 37207 ft 487 kts 103°
2026-04-27 11:21 0.97869 23.36166 37233 ft 487 kts 103°
2026-04-27 11:21 0.96134 23.43174 37262 ft 487 kts 103°
2026-04-27 11:22 0.94437 23.50026 37272 ft 487 kts 103°
2026-04-27 11:22 0.92718 23.56972 37244 ft 487 kts 103°
2026-04-27 11:23 0.91005 23.63887 37194 ft 487 kts 103°
2026-04-27 11:23 0.89303 23.70757 37155 ft 486 kts 103°
2026-04-27 11:24 0.87562 23.77781 37139 ft 486 kts 103°
2026-04-27 11:24 0.85825 23.84792 37165 ft 487 kts 103°
2026-04-27 11:25 0.84831 23.88804 37182 ft 487 kts 103°